www.pogodaiklimat.ru

Погода и климат >> Архив погоды >> Индия >> Cannanore


ПОГОДА в Cannanore

  • Прогноз погоды в Cannanore
  • Монитор погоды в Cannanore
  • Климат города

АРХИВ ПОГОДЫ в Cannanore

Время (UTC), дата Ветер
(напр.,м/с)
 
Видим.   Явления Облачность Т
(С)
Тd
(С)
f
(%)
Тe
(С)
Тes
(С)
Комфортность P
(гПа)
Po
(гПа)
Тmin
(С)
Tmax
(С)
R
(мм)
R24
(мм)
S
(см)
00 13.09 штиль 0 2000 м гроза без осадков {дождь} 9/5 300 м
[Cb cap Ac trans Cs]
+27.0 +25.6 92 +40 +40 очень
душно
1008.0 1008.0 0.6
03 13.09 штиль 0 10 км {гроза, дождь} 4/3 600 м
[Cu Sc Ci fib]
+28.2 +25.9 87 +42 +47 опасность
перегрева
1009.7 1010.0 +25.2 +32.9 5
06 13.09 Ю 2 10 км {гроза, дождь} 4/3 600 м
[Sc Ci fib]
+31.6 +26.9 76 +49 +63 опасность
перегрева
1009.2 1009.0
09 13.09 ЮЗ 3 10 км 3/1 600 м
[Cu hum Ci fib]
+33.0 +26.9 70 +51 +63 опасность
перегрева
1005.1 1005.0
12 13.09 З 3 4000 м смерч (торнадо) {снег} 10/5 300 м
[Cb cap Ac As]
+29.6 +25.7 80 +44 +44 опасность
перегрева
1005.5 1006.0 +33.3
00 14.09 штиль 0 2000 м гроза без осадков 8/5 300 м
[Cb cap Ac trans Ci fib]
+25.8 +24.4 92 +36 +36 очень
душно
1008.0 1008.0 43
03 14.09 Ю 1 4000 м слабая морось {гроза, дождь} 9/6 300 м
[Frnb Ac trans Ci fib]
+25.8 +25.2 96 +37 +39 очень
душно
1009.8 1010.0 +24.6 +33.3 47
06 14.09 ЮВ 2 10 км {гроза, дождь} 6/4 300 м
[Cu Sc Ac trans Ci fib]
+30.8 +26.0 76 +46 +56 опасность
перегрева
1010.1 1010.0
09 14.09 Ю 1 4000 м слабая морось {дождь} 9/5 300 м
[Frnb Ac As Ci fib]
+28.6 +26.1 86 +43 +49 опасность
перегрева
1008.0 1008.0 0.9
12 14.09 ЮЗ 1 4000 м дождь {морось} 10/6 300 м
[Frnb Ac As]
+26.0 +24.9 94 +37 +37 очень
душно
1008.0 1008.0 +31.1 25
00 15.09 СВ 2 2000 м дымка {дождь} 9/4 300 м
[Sc Ac As Ci fib]
+25.0 +24.1 95 +34 +34 очень
душно
1007.5 1008.0 38
03 15.09 ЮВ 3 4000 м мгла {дождь, морось} 9/3 300 м
[Frnb Ac As Ci fib]
+26.6 +24.6 89 +38 +40 очень
душно
1009.6 1010.0 +24.6 +31.1 38
06 15.09 ЮВ 3 10 км 9/4 300 м
[Cu Sc Ac As Ci fib]
+29.0 +24.7 78 +41 +47 опасность
перегрева
1010.0 1010.0
09 15.09 Ю 3 10 км 9/3 300 м
[Cu Sc Ac trans Cs]
+30.0 +25.5 77 +44 +49 опасность
перегрева
1007.0 1007.0
12 15.09 Ю 3 4000 м 10/4 300 м
[Cb cap Ac As]
+28.6 +25.5 83 +42 +42 опасность
перегрева
1006.7 1007.0 +30.6
00 16.09 ЮВ 2 4000 м гроза без осадков {дождь} 9/6 300 м
[Cb cap Ac As]
+25.6 +24.7 95 +36 +36 очень
душно
1007.5 1008.0 12
03 16.09 ЮВ 2 4000 м слабая морось {гроза, дождь} 10/6 300 м
[Frnb Ac As]
+26.0 +25.1 95 +37 +38 очень
душно
1009.2 1009.0 +25.0 +30.6 23
06 16.09 ЮВ 2 4000 м дождь {гроза} 10/5 300 м
[Frnb Ac As]
+26.0 +25.1 95 +37 +41 очень
душно
1009.1 1009.0 14
09 16.09 СВ 2 2000 м сильный дождь {морось} 10/6 200 м
[Frnb Ac As]
+25.0 +24.4 96 +35 +37 очень
душно
1007.4 1007.0 56
12 16.09 ЮВ 1 4000 м слабая морось {дождь} 10/5 300 м
[Cb cap Ac As]
+25.0 +24.4 96 +35 +35 очень
душно
1006.9 1007.0 +27.2 66
00 17.09 штиль 0 2000 м слабый дождь {морось} 9/5 300 м
[Frnb Ac As]
+25.0 +24.4 96 +35 +35 очень
душно
1008.4 1008.0 110
03 17.09 ЮВ 1 10 км {дождь, морось} 9/4 300 м
[Frnb Ac trans Cs]
+25.4 +24.8 96 +36 +38 очень
душно
1010.8 1011.0 +24.3 +27.2 110
06 17.09 Ю 1 4000 м слабая морось {дождь} 10/5 300 м
[Frnb Ac As]
+28.2 +25.7 86 +42 +45 опасность
перегрева
1010.6 1011.0 0.0
09 17.09 СВ 1 4000 м слабый дождь {морось} 10/5 300 м
[Cb cap Ac As]
+25.6 +24.4 93 +36 +39 очень
душно
1009.2 1009.0 7
12 17.09 штиль 0 4000 м слабая морось {дождь} 10/5 300 м
[Frnb Ac As]
+24.4 +23.8 96 +33 +33 очень
душно
1008.6 1009.0 +28.8 24
00 18.09 ЮЗ 2 2000 м дымка 8/5 300 м
[Frnb Ac trans Ci fib]
+25.4 +24.8 96 +36 +36 очень
душно
1010.4 1010.0 63
03 18.09 штиль 0 4000 м слабый дождь {морось} 10/5 300 м
[Frnb Ac As]
+24.4 +23.8 96 +33 +34 очень
душно
1012.4 1012.0 +23.6 +28.8 68
06 18.09 ЮЗ 2 10 км в посл. час дождь {морось} 8/5 300 м
[Cu Sc Ac trans Ci fib]
+27.6 +26.5 94 +42 +50 опасность
перегрева
1012.1 1012.0 2
09 18.09 З 2 10 км 9/4 300 м
[Frnb Ac As Cs]
+28.6 +25.8 85 +43 +48 опасность
перегрева
1009.9 1010.0 2
12 18.09 З 1 10 км {морось} 9/4 300 м
[Frnb Ac As Cs]
+27.8 +26.1 90 +42 +42 опасность
перегрева
1009.9 1010.0 +30.3 3
00 19.09 З 3 2000 м слабый дождь {морось} 9/4 300 м
[Sc Ac As]
+26.4 +25.3 94 +38 +38 очень
душно
1010.2 1010.0 5
03 19.09 З 2 4000 м мгла {дождь, морось} 9/3 300 м
[Cb cap Ac trans Ci fib]
+26.6 +25.2 92 +38 +41 очень
душно
1012.0 1012.0 +25.3 +30.3 9
06 19.09 З 3 10 км {дождь, морось} 6/3 300 м
[Cu Sc Ac trans Ci fib]
+30.4 +26.2 78 +46 +55 опасность
перегрева
1011.3 1011.0
09 19.09 З 4 10 км 9/3 300 м
[Cu Sc Ac trans Ci fib]
+30.6 +25.8 76 +46 +50 опасность
перегрева
1008.9 1009.0
12 19.09 З 4 10 км 8/3 300 м
[Cb calv Ac trans Ci fib]
+29.4 +25.4 79 +43 +43 опасность
перегрева
1008.9 1009.0 +31.4

 

Местоположение метеостанции Cannanore (Kerala, Индия): широта 11.83 долгота 75.33 высота над уровнем моря 18 м.

В архиве по умолчанию представлена погода в Cannanore за последнюю неделю. Архивные данные за месяц целиком и за предыдущие месяцы, начиная с января 2011 года, Вы можете получить, выбрав интересующий диапазон дат из раскрывающегося списка и нажав кнопку "Ввод!".

Внимание! Время в таблицах - всемирное. Для получения местного времени необходимо прибавить поправку, которая в Cannanore равна 5.5 ч.

Смотрите также архив погоды в соседних городах и на ближайших метеорологических станциях:

Погода в Madikeri (Karnataka, Индия) (79 км)
Погода в Kozhikode (Kerala, Индия) (81 км)
Погода в Karipur (Kerala, Индия) (103 км)
Погода в Mangalore Airport (Karnataka, Индия) (131 км)
Погода в Mangalore (Karnataka, Индия) (136 км)
Погода в Mysore (Karnataka, Индия) (158 км)
Погода в Udhagamandalam (Tamil Nadu, Индия) (160 км)
Погода в Chickmagalur (Karnataka, Индия) (164 км)
Погода в Hassan (Karnataka, Индия) (167 км)
Погода в Coonoor (Tamil Nadu, Индия) (169 км)

Пояснения к столбцам:

Ветер - указаны скорость ветра в м/с - средняя за 10 мин, порывы в срок и между сроками (в фигурных скобках) и направление, откуда дует ветер: С - северный, СВ - северо-восточный, В - восточный, ЮВ - юго-восточный, Ю - южный, ЮЗ - юго-западный, З - западный, СЗ - северо-западный.
Видимость - горизонтальная дальность видимости в метрах или километрах. При видимости от 1 до 10 км при отсутствии осадков обычно наблюдается дымка, при ухудшении видимости до 1 км и менее - туман. В сухую погоду видимость может ухудшаться дымом, пылью или мглою.
Явления - указаны атмосферные явления, наблюдавшиеся в срок или в последний час перед сроком; фигурными скобками обозначены явления, наблюдавшиеся между сроками (за 1-3 часа до срока); квадратными скобками обозначены град или гололедные отложения с указанием их диаметра в мм.
Облачность - указаны через наклонную черту общая и нижняя облачность в баллах и высота нижней границы облаков в метрах; квадратными скобками обозначены формы облаков: Ci - перистые, Cs - перисто-слоистые, Cc - перисто-кучевые, Ac - высококучевые, As - высокослоистые, Sc - слоисто-кучевые, Ns - слоисто-дождевые, Cu - кучевые, Cb - кучево-дождевые. Подробнее классификацию облаков см. в Атласе облаков (PDF).
T - Температура воздуха - температура, измеренная на высоте 2 м над землей.
Td - Температура точки росы - температура, при понижении до которой содержащийся в воздухе водяной пар достигнет насыщения.
f - Относительная влажность воздуха - влажноcть воздуха, измеренная на высоте 2 м над землей.
Te - Эффективная температура - температура, которую ощущает одетый по сезону человек в тени. Характеристика душности погоды. При расчете учитывается влияние влажности воздуха и скорости ветра на теплоощущения человека.
Tes - Эффективная температура на солнце - температура, которую ощущает человек, с поправкой на солнечный нагрев. Характеристика знойности погоды. Зависит от высоты солнца над горизонтом, облачности и скорости ветра. Ночью, в пасмурную погоду, а также при ветре 12 м/с и более поправка равна нулю.
P - Атмосферное давление - приведенное к уровню моря атмосферное давление.
Po - Атмосферное давление - измеренное на уровне метеостанции атмосферное давление.
Tmin - Минимальная температура - минимум температуры воздуха на высоте 2 м над землей.
Tmax - Максимальная температура - максимум температуры воздуха на высоте 2 м над землей.
R - Количество осадков - Количество выпавших осадков за период времени, мм. При наведении курсора мыши на число - период времени, за который выпало указанное количество осадков.
R24 - Количество осадков - Количество выпавших осадков за 24 часа, мм.
S - Снежный покров - Высота снежного покрова, см. При наведении курсора мыши на число - состояние снежного покрова и степень покрытия местности в баллах.